Location: Ripley
(48.3812°N, 115.4473°W)
Time: 03:18:27
(UTC+00:00)

RS-15 - Pass Details

Date: 05 July 2022
Orbit: 1881 x 2163 km, 64.8° (Epoch: 10 August)

Event Time Altitude Azimuth Distance (km) Brightness Sun altitude
Rises 08:03:15 0° 322° (NW) 5,700 11.2 -18.7°
Reaches altitude 10° 08:07:04 10° 315° (NW) 4,687 10.5 -18.7°
Maximum altitude 08:17:48 38° 254° (WSW) 2,939 8.7 -18.5°
Enters shadow 08:24:27 22° 204° (SSW) 3,664 8.9 -18.3°
